Location: Bothwell
(42.3833°S, 147.0000°E)
Time: 03:56:58
(UTC+10:00)

XW-2C - Pass Details

Date: 23 April 2024
Orbit: 436 x 449 km, 97.5° (Epoch: 22 May)

Event Time Altitude Azimuth Distance (km) Brightness Sun altitude
Exits shadow 18:50:25 12° 156° (SSE) 1,528 ? -15.9°
Maximum altitude 18:53:35 50° 80° (E) 607 ? -16.5°
Drops below altitude 10° 18:56:59 10° 3° (N) 1,621 ? -17.1°
Sets 18:59:03 0° 358° (N) 2,487 ? -17.5°
